Regional Weather Roundup
Issued by NWS

Home | Current Version | Previous Version | Graphics & Text | Print | Product List | Glossary On
Versions: 1 2 3 4 5 6 7 8 9 10 11 12 13 14 15 16 17 18 19 20 21 22 23 24 25 26 27 28 29 30 31 32 33 34 35 36 37 38 39 40 41 42 43 44 45 46 47 48 49 50
000
ASUS44 KMEG 210710
RWRTN
TENNESSEE HOURLY STATE WEATHER ROUNDUP
NATIONAL WEATHER SERVICE MEMPHIS TN
200 AM CDT TUE APR 21 2015

TNZ002-004-019-021-049-052-054-088>092-210800-
WEST TENNESSEE

CITY           SKY/WX    TMP DP  RH WIND       PRES   REMARKS
MEMPHIS INTL   CLEAR     52  37  56 W3        29.98S
NWS MEMPHIS      N/A     46 N/A N/A MISG        N/A
JACKSON        CLEAR     45  40  82 SW6       29.95S
DYERSBURG      CLEAR     48  30  49 CALM      29.96S
UNION CITY     CLEAR     48  32  53 W3        29.92F
PARIS            N/A     46  36  66 CALM      29.93S
LEXINGTON      MOCLDY    43  41  93 CALM      29.93S
SAVANNAH       PTCLDY    43  32  65 CALM      29.95F
$$

TNZ008-025-027-028-033-062-065-066-210800-
NORTH MIDDLE TENNESSEE

CITY           SKY/WX    TMP DP  RH WIND       PRES   REMARKS
NASHVILLE      CLEAR     49  42  77 CALM      29.92S
CLARKSVILLE    PTCLDY    48  44  86 SW3       29.92S
SMYRNA         CLEAR     48  42  80 CALM      29.93R
COOKEVILLE     CLEAR     45  43  93 CALM      29.90R
CROSSVILLE     PTCLDY    45  41  86 VRB3      29.91S
$$

TNZ061-075-076-078-094-096-097-210800-
SOUTH MIDDLE TENNESSEE

CITY           SKY/WX    TMP DP  RH WIND       PRES   REMARKS
FAYETTEVILLE   CLEAR     45  39  81 CALM      29.93F
TULLAHOMA      CLEAR     43  37  81 CALM      29.93S
WINCHESTER     CLEAR     43  43 100 CALM      29.93F
MCMINNVILLE    PTCLDY    45  45 100 CALM      29.91S
COLUMBIA       PTCLDY    48  32  53 W5        29.92R
SHELBYVILLE    CLEAR     45  43  93 CALM      29.93S
$$

TNZ017-018-042-046-047-210800-
NORTHEAST TENNESSEE

CITY           SKY/WX    TMP DP  RH WIND       PRES   REMARKS
TRI CITIES     PTCLDY    50  44  80 W6        29.87S
ELIZABETHTON   CLOUDY    48  43  81 CALM      29.87S
$$

TNZ012-013-036-069-073-074-210800-
CENTRAL EAST TENNESSEE

CITY           SKY/WX    TMP DP  RH WIND       PRES   REMARKS
KNOXVILLE      CLEAR     49  43  80 SW7       29.89F
OAK RIDGE      PTCLDY    50  45  83 CALM      29.91S
GATLINBURG     SUNNY     54  41  62 SW7       29.89S
$$

TNZ083-085-099-210800-
SOUTHEAST TENNESSEE

CITY           SKY/WX    TMP DP  RH WIND       PRES   REMARKS
CHATTANOOGA    CLEAR     52  44  74 CALM      29.93F
$$

SKY/WX REPORTED AS FAIR MEANS FEW OR NO CLOUDS BELOW
12 THOUSAND FEET.




USA.gov is the U.S. government's official web portal to all federal, state and local government web resources and services.